Date,TemperatureHighF,TemperatureAvgF,TemperatureLowF,DewpointHighF,DewpointAvgF,DewpointLowF,HumidityHigh,HumidityAvg,HumidityLow,PressureMaxIn,PressureMinIn,WindSpeedMaxMPH,WindSpeedAvgMPH,GustSpeedMaxMPH,PrecipitationSumIn
2013-1-1,79.3,72.3,64.3,64.0,60.8,58.0,85,68,57,30.20,30.05,8,2,15,0.00
2013-1-2,83.0,70.6,60.3,68.0,63.1,57.0,92,79,51,30.08,29.98,4,0,8,0.00
2013-1-3,80.8,72.4,66.1,69.0,66.5,64.0,92,82,67,30.12,30.02,7,1,9,0.00
2013-1-4,82.8,71.9,64.4,72.0,67.1,62.0,94,85,66,30.22,30.10,7,1,10,0.00
2013-1-5,74.3,68.7,64.6,70.0,66.1,62.0,94,91,82,30.24,30.15,4,1,7,0.09
2013-1-6,79.8,71.9,63.9,72.0,67.5,62.0,95,86,74,30.18,30.05,9,1,14,0.00
2013-1-7,72.7,69.4,66.3,70.0,67.3,65.0,95,93,89,30.16,30.06,4,0,5,0.66
2013-1-8,79.7,74.8,70.0,73.0,70.5,68.0,94,86,78,30.20,30.07,11,3,14,0.10
2013-1-9,80.4,76.8,73.6,73.0,70.6,69.0,90,81,75,30.27,30.15,12,5,17,0.00
2013-1-10,78.8,76.0,74.3,69.0,67.1,64.0,81,74,62,30.29,30.18,13,6,21,0.00
2013-1-11,78.2,75.4,73.3,70.0,67.9,66.0,82,77,72,30.25,30.15,13,5,17,0.00
2013-1-12,79.1,74.5,68.1,69.0,66.8,64.0,88,77,69,30.17,30.08,8,3,14,0.00
2013-1-13,79.6,75.0,72.3,69.0,65.8,63.0,81,73,65,30.12,30.07,9,4,15,0.00
2013-1-14,78.6,74.0,67.7,67.0,64.9,62.0,85,73,64,30.16,30.11,8,2,13,0.00
2013-1-15,78.5,73.9,65.8,68.0,66.1,62.0,87,77,67,30.13,30.04,11,3,13,0.00
2013-1-16,79.6,72.3,62.6,70.0,66.4,60.0,94,82,68,30.10,30.01,7,2,12,0.03
2013-1-17,80.6,70.9,60.3,73.0,65.9,54.0,95,84,72,30.08,29.96,7,1,12,0.10
2013-1-18,70.8,63.5,51.9,60.0,53.6,45.0,80,70,61,30.23,30.08,6,2,13,0.00
2013-1-19,71.6,68.6,65.7,67.0,63.7,60.0,94,85,70,30.21,30.10,5,1,9,0.17
2013-1-20,79.3,70.4,62.9,70.0,65.8,61.0,95,86,69,30.14,30.01,7,1,9,0.11
2013-1-21,79.0,70.2,64.3,70.0,66.4,63.0,95,88,72,30.06,29.95,7,1,10,0.07
2013-1-22,75.3,67.5,61.1,63.0,58.8,53.0,93,75,59,30.21,30.00,8,2,15,0.00
2013-1-23,73.5,66.8,59.9,59.0,55.0,52.0,82,67,52,30.29,30.20,7,2,14,0.00
2013-1-24,76.6,65.1,57.9,55.0,52.4,43.0,85,66,38,30.29,30.19,6,1,14,0.00
2013-1-25,74.6,65.4,56.7,60.0,55.4,50.0,85,71,53,30.29,30.17,5,1,10,0.00
2013-1-26,77.5,66.8,57.4,60.0,57.4,52.0,90,73,48,30.25,30.16,5,1,13,0.00
2013-1-27,76.1,69.2,60.5,64.0,59.9,57.0,90,73,56,30.28,30.19,8,2,16,0.00
2013-1-28,78.0,74.1,71.3,67.0,64.3,61.0,81,71,62,30.31,30.22,12,5,15,0.00
2013-1-29,77.9,74.1,71.5,69.0,67.0,65.0,85,78,73,30.22,30.12,8,2,15,0.00
2013-1-30,78.4,73.8,70.1,68.0,65.7,63.0,88,76,66,30.11,29.96,12,3,19,0.00
2013-1-31,72.1,66.0,57.7,70.0,58.3,41.0,93,77,51,30.18,29.94,4,1,12,0.01
2013-2-1,72.2,61.8,52.8,56.0,48.6,38.0,74,62,53,30.27,30.16,12,2,14,0.00
2013-2-2,71.3,62.5,53.7,54.0,49.1,38.0,87,63,50,30.26,30.12,8,1,13,0.00
2013-2-3,74.4,62.1,53.7,53.0,48.6,40.0,91,65,29,30.17,30.07,5,1,10,0.00
2013-2-4,75.3,61.4,48.2,55.0,48.4,41.0,86,65,33,30.14,30.03,5,1,12,0.00
2013-2-5,76.2,65.3,52.8,63.0,57.5,50.0,93,77,54,30.09,30.00,9,1,10,0.00
2013-2-6,78.3,69.5,59.4,67.0,62.0,57.0,94,78,62,30.10,30.02,7,2,11,0.00
2013-2-7,79.0,73.4,68.6,67.0,64.3,62.0,83,73,62,30.07,29.93,8,2,12,0.00
2013-2-8,83.0,74.0,67.2,70.0,66.2,63.0,91,78,58,30.02,29.90,5,1,9,0.00
2013-2-9,76.8,70.4,63.7,67.0,63.3,60.0,93,79,65,30.17,30.01,11,4,15,0.00
2013-2-10,73.2,71.4,69.1,63.0,61.6,59.0,76,71,68,30.26,30.14,14,6,18,0.00
2013-2-11,77.6,72.6,69.1,66.0,63.4,61.0,80,73,66,30.21,30.10,9,2,13,0.00
2013-2-12,83.0,73.2,63.1,70.0,66.1,60.0,92,79,58,30.11,29.96,8,1,11,0.00
2013-2-13,84.6,75.7,67.1,73.0,69.4,64.0,94,81,66,30.00,29.88,9,2,16,0.00
2013-2-14,76.5,69.6,62.4,71.0,66.5,61.0,94,90,81,30.00,29.85,8,2,17,1.30
2013-2-15,72.4,66.2,62.4,67.0,63.9,61.0,95,92,80,30.02,29.93,5,1,9,0.28
2013-2-16,73.7,64.9,54.5,64.0,56.5,44.0,94,76,46,30.08,29.88,6,2,14,0.00
2013-2-17,59.2,51.4,43.9,44.0,29.2,18.0,72,46,24,30.31,30.08,9,2,17,0.00
2013-2-18,67.7,58.6,46.3,57.0,45.2,32.0,70,62,51,30.33,30.21,13,4,16,0.00
2013-2-19,76.6,70.9,59.7,66.0,60.7,53.0,87,71,60,30.20,30.08,11,2,14,0.01
2013-2-20,76.3,69.7,62.5,67.0,63.8,60.0,94,82,60,30.11,30.01,9,1,13,0.02
2013-2-21,79.7,71.7,63.0,69.0,65.3,61.0,94,81,66,30.09,29.99,8,2,14,0.00
2013-2-22,80.0,75.3,71.8,71.0,69.2,66.0,88,81,73,30.09,30.01,10,4,16,0.00
2013-2-23,82.0,75.8,70.8,73.0,69.8,68.0,92,82,72,30.04,29.91,11,3,15,0.33
2013-2-24,87.6,76.3,69.8,74.0,70.4,68.0,95,83,55,29.99,29.89,7,1,10,0.00
2013-2-25,82.9,75.0,68.0,74.0,70.1,66.0,93,84,72,29.91,29.80,10,2,16,0.00
2013-2-26,86.8,79.1,74.2,73.0,70.9,68.0,89,77,57,29.88,29.79,11,3,15,0.01
2013-2-27,77.1,70.7,62.6,73.0,65.2,60.0,94,83,63,29.96,29.85,4,1,8,0.50
2013-2-28,71.0,63.8,58.6,63.0,54.1,49.0,94,72,47,30.00,29.90,4,1,8,0.00
2013-3-1,66.4,61.7,57.8,57.0,51.3,48.0,83,69,58,29.99,29.90,4,1,8,0.00
2013-3-2,67.3,57.7,50.1,49.0,42.2,36.0,75,58,41,30.04,29.95,7,2,13,0.00
2013-3-3,62.5,54.5,49.3,47.0,42.0,38.0,86,64,45,30.15,29.97,6,1,12,0.00
2013-3-4,66.3,53.4,41.8,44.0,37.0,31.0,81,57,28,30.22,30.13,10,2,15,0.00
2013-3-5,73.8,62.1,47.3,57.0,52.3,44.0,91,72,53,30.19,30.09,7,2,12,0.00
2013-3-6,78.3,64.8,52.7,63.0,51.5,33.0,92,66,31,30.10,29.94,10,2,12,0.00
2013-3-7,70.9,58.8,47.1,55.0,45.1,35.0,87,62,42,30.18,30.07,7,2,9,0.00
2013-3-8,76.1,62.3,51.0,53.0,50.2,43.0,89,68,31,30.20,30.11,9,1,11,0.00
2013-3-9,73.4,64.2,53.3,57.0,53.2,49.0,89,69,55,30.19,30.10,10,2,16,0.00
2013-3-10,72.8,69.3,65.9,61.0,56.4,53.0,74,64,55,30.15,30.07,13,5,17,0.00
2013-3-11,76.2,71.3,68.5,63.0,60.6,57.0,75,69,55,30.11,29.95,10,5,16,0.00
2013-3-12,79.8,74.0,70.1,70.0,65.7,62.0,83,75,69,30.00,29.90,11,3,14,0.00
2013-3-13,74.8,66.2,57.1,65.0,55.0,44.0,89,69,40,30.12,29.97,8,2,13,0.00
2013-3-14,71.8,60.9,53.9,52.0,46.5,38.0,86,62,33,30.20,30.08,8,2,15,0.00
2013-3-15,70.7,62.0,52.5,54.0,50.2,44.0,78,66,50,30.25,30.15,5,1,14,0.00
2013-3-16,73.4,64.0,52.6,59.0,53.3,50.0,93,70,50,30.20,30.09,10,2,14,0.00
2013-3-17,74.6,67.3,57.1,62.0,58.1,53.0,89,73,58,30.15,30.03,11,2,18,0.00
2013-3-18,78.0,71.2,64.2,70.0,65.0,60.0,93,81,69,30.07,29.96,8,2,17,0.27
2013-3-19,80.2,72.1,67.8,69.0,67.2,65.0,94,85,64,30.00,29.82,6,1,12,0.01
2013-3-20,81.8,71.9,63.5,71.0,65.3,57.0,95,81,56,29.97,29.80,11,1,14,0.00
2013-3-21,78.3,66.3,57.1,61.0,54.2,49.0,91,68,37,29.94,29.82,7,1,13,0.00
2013-3-22,75.3,66.7,54.4,69.0,59.1,51.0,92,77,60,30.01,29.90,9,2,16,0.01
2013-3-23,87.0,77.0,70.8,75.0,71.2,69.0,94,83,60,29.98,29.80,7,1,15,0.00
2013-3-24,90.4,80.0,72.8,74.0,71.4,67.0,93,76,53,29.88,29.68,12,3,21,0.03
2013-3-25,80.9,74.2,64.3,72.0,60.3,41.0,92,65,35,29.98,29.74,7,1,11,0.00
2013-3-26,69.4,61.1,52.5,43.0,38.1,33.0,55,44,27,30.21,29.98,6,2,12,0.00
2013-3-27,69.9,56.7,45.7,48.0,41.3,34.0,75,58,36,30.26,30.17,7,2,13,0.00
2013-3-28,71.3,60.4,50.1,51.0,44.7,34.0,77,58,31,30.27,30.18,7,1,15,0.00
2013-3-29,72.8,64.4,53.9,54.0,50.0,44.0,76,60,45,30.29,30.21,9,2,13,0.00
2013-3-30,72.3,66.6,56.6,59.0,52.8,49.0,88,63,45,30.27,30.17,9,2,15,0.00
2013-3-31,78.8,71.6,61.9,66.0,61.7,55.0,84,71,59,30.19,30.04,11,3,17,0.00
2013-4-1,89.4,76.8,68.4,71.0,66.2,63.0,89,72,44,30.05,29.93,7,2,14,0.00
2013-4-2,84.7,73.4,65.7,68.0,65.3,63.0,93,77,53,30.07,29.98,9,2,11,0.00
2013-4-3,80.7,75.7,70.9,70.0,68.1,66.0,86,77,66,30.06,29.99,10,3,17,0.00
2013-4-4,82.6,74.8,68.8,73.0,69.5,66.0,93,83,72,30.04,29.91,14,3,17,0.50
2013-4-5,72.0,67.9,64.5,70.0,65.5,63.0,93,92,86,29.98,29.82,6,1,14,0.38
2013-4-6,76.3,68.1,58.6,66.0,61.3,56.0,94,80,64,30.08,29.91,7,2,14,0.04
2013-4-7,75.4,72.9,70.8,65.0,62.6,61.0,75,70,64,30.14,30.02,11,4,15,0.00
2013-4-8,78.7,71.9,61.5,67.0,62.0,58.0,91,72,56,30.13,30.04,10,3,16,0.00
2013-4-9,78.4,74.7,72.0,69.0,66.6,64.0,85,76,68,30.15,30.04,10,4,15,0.00
2013-4-10,81.3,76.6,73.3,72.0,69.7,66.0,84,79,74,30.09,29.99,13,5,16,0.01
2013-4-11,81.5,77.6,75.2,73.0,71.5,70.0,87,82,74,30.01,29.89,11,5,18,0.00
2013-4-12,87.5,79.3,76.4,76.0,74.1,73.0,89,84,69,29.94,29.86,8,3,17,0.08
2013-4-13,84.2,76.3,71.8,75.0,71.8,68.0,92,86,73,29.96,29.87,6,1,8,0.01
2013-4-14,84.4,78.3,71.5,75.0,73.2,69.0,94,84,68,29.96,29.89,10,2,16,0.01
2013-4-15,85.7,76.9,70.9,77.0,72.4,68.0,94,86,70,30.05,29.92,10,2,15,0.50
2013-4-16,83.3,76.7,70.4,76.0,72.0,69.0,96,86,74,30.11,30.02,9,3,15,0.00
2013-4-17,81.1,77.3,72.8,71.0,69.0,67.0,86,76,66,30.10,30.02,9,3,15,0.00
2013-4-18,83.0,78.8,74.9,74.0,71.2,68.0,83,77,70,30.06,29.97,11,4,15,0.00
2013-4-19,84.9,80.6,77.3,75.0,72.6,70.0,85,77,64,30.04,29.96,11,4,21,0.00
2013-4-20,88.3,77.6,71.5,78.0,72.8,69.0,94,85,63,30.07,29.95,8,2,12,0.44
2013-4-21,81.3,76.5,71.5,74.0,71.5,69.0,93,84,74,30.09,29.97,10,2,17,0.02
2013-4-22,82.6,74.4,70.0,71.0,69.5,67.0,93,85,67,30.04,29.91,8,1,11,0.40
2013-4-23,80.9,74.3,67.2,70.0,65.8,61.0,93,76,61,30.08,29.95,10,3,19,0.01
2013-4-24,80.3,76.0,72.1,67.0,64.1,61.0,75,67,60,30.13,30.03,10,3,14,0.00
2013-4-25,80.5,75.4,71.7,65.0,62.9,61.0,75,65,54,30.19,30.07,9,3,15,0.00
2013-4-26,80.3,74.8,67.0,67.0,64.6,61.0,84,71,60,30.21,30.11,12,3,16,0.00
2013-4-27,79.0,75.8,71.6,67.0,64.6,62.0,75,68,60,30.20,30.08,12,4,21,0.00
2013-4-28,79.5,76.1,73.0,67.0,64.1,63.0,72,67,60,30.11,29.99,12,5,16,0.00
2013-4-29,81.4,77.1,73.7,71.0,68.1,64.0,82,74,64,30.03,29.93,10,4,16,0.00
2013-4-30,84.1,76.3,71.0,73.0,69.9,68.0,90,81,65,29.99,29.92,7,1,12,0.06
2013-5-1,82.1,74.4,69.8,73.0,70.1,67.0,94,87,71,30.00,29.92,11,1,13,0.14
2013-5-2,78.8,71.3,66.1,73.0,69.0,64.0,96,92,82,29.93,29.80,10,3,21,5.61
2013-5-3,88.5,75.1,68.4,72.0,69.2,67.0,95,83,54,29.81,29.67,9,1,14,0.30
2013-5-4,88.9,76.6,66.6,72.0,68.3,65.0,95,77,50,29.79,29.68,5,1,8,0.01
2013-5-5,83.6,74.1,64.7,68.0,62.4,54.0,92,69,38,29.92,29.75,7,1,8,0.00
2013-5-6,86.2,71.8,57.9,64.0,60.2,53.0,92,69,45,30.01,29.91,6,1,9,0.00
2013-5-7,86.5,73.6,61.7,67.0,61.2,57.0,86,67,42,30.05,29.97,4,1,9,0.00
2013-5-8,86.6,74.0,60.9,66.0,61.8,56.0,92,68,36,30.13,30.03,5,1,10,0.00
2013-5-9,84.4,76.4,64.7,73.0,67.6,60.0,87,75,55,30.13,30.05,10,2,14,0.00
2013-5-10,86.8,79.7,72.5,74.0,72.2,69.0,91,78,57,30.12,30.01,9,2,14,0.01
2013-5-11,87.0,79.2,73.0,77.0,73.1,70.0,94,82,69,30.07,29.97,11,2,15,0.03
2013-5-12,89.5,77.9,71.3,76.0,71.5,68.0,95,82,57,30.05,29.93,7,1,16,1.35
2013-5-13,89.5,77.9,69.7,74.0,69.4,63.0,96,77,47,30.08,29.98,4,1,9,0.00
2013-5-14,79.2,75.4,71.2,66.0,61.2,57.0,79,62,50,30.17,30.06,8,2,15,0.00
2013-5-15,78.8,75.1,69.3,66.0,61.5,57.0,76,63,54,30.18,30.09,10,4,15,0.00
2013-5-16,79.8,75.3,67.5,66.0,62.6,59.0,80,65,55,30.11,30.04,9,3,13,0.00
2013-5-17,83.2,76.9,69.1,73.0,69.4,64.0,89,78,65,30.09,30.01,10,2,15,0.00
2013-5-18,83.4,77.6,72.6,75.0,72.0,70.0,94,83,72,30.10,30.03,8,2,14,0.07
2013-5-19,83.5,78.5,72.3,72.0,69.9,67.0,89,75,61,30.09,30.00,9,3,12,0.00
2013-5-20,80.3,74.8,67.9,74.0,71.3,66.0,95,89,77,30.08,29.97,7,2,15,5.09
2013-5-21,81.0,75.3,69.0,75.0,70.9,68.0,95,86,70,30.04,29.93,8,2,14,0.18
2013-5-22,82.9,75.0,70.5,75.0,70.1,-99.9,93,87,76,29.96,29.89,8,-10,13,1.32
2013-5-23,94.3,82.1,73.0,76.0,73.3,69.0,95,77,45,30.00,29.90,7,1,9,0.00
2013-5-24,91.5,82.3,75.2,76.0,73.9,68.0,93,76,56,30.04,29.93,8,1,12,0.00
2013-5-25,83.3,78.9,72.6,74.0,68.5,65.0,90,71,56,30.15,30.03,13,3,16,0.09
2013-5-26,81.8,77.8,71.9,69.0,65.5,59.0,76,66,58,30.16,30.09,10,3,15,0.00
2013-5-27,81.7,77.9,72.1,72.0,69.9,65.0,91,76,67,30.14,30.05,11,5,16,0.15
2013-5-28,80.6,77.6,73.9,74.0,72.3,69.0,91,84,75,30.10,30.03,13,6,17,0.17
2013-5-29,80.2,75.2,70.8,74.0,71.0,67.0,94,87,73,30.08,30.02,13,5,20,2.06
2013-5-30,81.9,77.9,72.0,74.0,71.8,69.0,89,81,74,30.06,29.99,15,8,21,0.04
2013-5-31,82.2,78.3,74.3,75.0,73.1,71.0,91,84,76,30.05,29.99,13,6,18,0.14
2013-6-1,82.7,76.8,73.5,76.0,73.8,72.0,94,90,79,30.01,29.95,7,1,13,0.68
2013-6-2,88.6,79.0,71.5,78.0,73.3,70.0,95,83,67,29.99,29.91,8,1,10,0.00
2013-6-3,85.9,78.3,72.8,77.0,73.5,70.0,93,85,71,30.02,29.90,8,1,10,0.75
2013-6-4,82.8,77.9,73.1,77.0,73.7,71.0,94,87,70,30.04,29.94,5,1,8,0.05
2013-6-5,82.4,80.5,79.0,77.0,75.6,74.0,89,85,82,30.01,29.89,7,3,10,0.07
2013-6-6,87.0,79.5,73.4,79.0,75.3,71.0,94,87,75,29.90,29.77,12,3,20,1.02
2013-6-7,93.5,78.0,73.3,77.0,73.2,71.0,94,86,55,29.98,29.83,6,1,11,0.34
2013-6-8,84.7,78.4,74.1,79.0,75.1,72.0,95,90,77,30.09,29.95,6,1,11,0.77
2013-6-9,85.5,81.7,78.9,77.0,75.0,74.0,87,80,71,30.10,30.03,14,4,15,0.04
2013-6-10,85.3,82.2,79.7,77.0,75.8,74.0,85,81,71,30.08,30.00,10,4,13,0.00
2013-6-11,86.2,81.7,78.3,78.0,76.2,74.0,91,83,69,30.08,30.00,7,2,11,0.35
2013-6-12,87.2,80.1,76.4,79.0,75.7,72.0,93,87,74,30.07,30.01,5,0,10,0.04
2013-6-13,87.4,79.0,74.0,79.0,74.2,71.0,95,85,68,30.04,29.93,6,0,8,0.31
2013-6-14,95.4,81.6,73.0,77.0,72.9,70.0,93,76,50,29.96,29.87,7,1,12,0.00
2013-6-15,92.6,82.1,74.2,77.0,74.4,72.0,93,78,55,30.05,29.91,6,1,11,0.00
2013-6-16,88.3,82.1,75.1,78.0,75.1,72.0,92,79,64,30.08,30.01,8,2,12,0.00
2013-6-17,88.0,83.3,77.2,78.0,75.5,73.0,91,77,67,30.07,30.00,8,2,12,0.00
2013-6-18,89.7,83.4,76.6,77.0,75.1,74.0,92,77,63,30.06,29.98,9,2,11,0.00
2013-6-19,90.0,83.4,77.9,78.0,75.5,74.0,91,78,62,30.04,29.97,8,2,11,0.00
2013-6-20,89.7,81.3,72.0,77.0,73.4,68.0,91,77,62,30.08,30.01,7,1,12,0.36
2013-6-21,88.7,83.0,77.2,76.0,74.0,72.0,86,75,59,30.10,30.02,7,2,12,0.00
2013-6-22,86.8,82.9,77.7,75.0,73.8,72.0,87,74,65,30.09,30.03,10,3,13,0.00
2013-6-23,87.4,83.0,79.1,76.0,74.3,72.0,83,75,65,30.12,30.04,10,4,16,0.00
2013-6-24,86.4,83.0,77.8,76.0,74.1,72.0,85,74,69,30.15,30.07,13,4,16,0.01
2013-6-25,87.4,82.9,80.3,77.0,75.1,73.0,84,77,68,30.12,30.03,11,4,14,0.00
2013-6-26,88.9,82.3,77.3,77.0,75.1,73.0,91,79,64,30.07,30.00,9,2,15,0.27
2013-6-27,85.7,80.6,75.5,77.0,74.8,71.0,89,82,74,30.05,29.95,8,1,10,0.66
2013-6-28,89.5,80.9,74.1,78.0,74.0,70.0,92,80,63,29.99,29.85,8,1,12,0.22
2013-6-29,92.7,80.3,74.1,78.0,74.9,72.0,94,84,56,29.91,29.81,8,1,11,0.39
2013-6-30,91.4,79.5,74.2,78.0,74.4,71.0,94,85,60,29.94,29.84,11,1,14,0.80
2013-7-1,88.3,80.9,74.8,78.0,75.3,70.0,94,83,71,30.03,29.91,8,2,17,0.11
2013-7-2,87.4,82.2,76.7,79.0,76.4,73.0,91,82,73,30.10,29.97,10,2,13,0.01
2013-7-3,87.5,81.5,77.5,78.0,75.6,73.0,90,82,71,30.12,30.04,11,3,18,0.27
2013-7-4,87.2,83.2,77.8,78.0,75.4,72.0,85,77,68,30.14,30.06,13,4,18,0.02
2013-7-5,84.5,80.1,74.3,77.0,75.0,71.0,92,84,78,30.12,30.04,9,4,16,0.49
2013-7-6,85.4,81.9,79.2,76.0,74.6,73.0,85,79,70,30.11,30.02,14,5,17,0.05
2013-7-7,85.8,82.5,78.7,77.0,75.0,74.0,87,78,71,30.09,30.02,12,4,16,0.06
2013-7-8,85.9,82.3,79.1,76.0,73.9,73.0,82,76,65,30.13,30.06,10,3,14,0.00
2013-7-9,85.4,80.4,74.9,75.0,72.9,71.0,90,78,64,30.13,30.04,9,2,14,0.01
2013-7-10,83.5,78.0,70.8,75.0,73.0,68.0,94,85,75,30.08,29.99,7,2,10,0.57
2013-7-11,88.3,81.7,75.5,78.0,74.7,73.0,92,79,66,30.03,29.94,8,1,14,0.00
2013-7-12,90.8,79.5,73.4,78.0,73.7,70.0,92,83,59,29.95,29.88,6,1,11,0.57
2013-7-13,87.3,75.5,72.0,77.0,72.3,70.0,94,90,69,30.02,29.91,4,0,10,0.89
2013-7-14,87.2,77.8,72.3,76.0,73.0,70.0,94,85,63,30.08,29.98,7,1,14,0.11
2013-7-15,85.8,78.8,72.0,77.0,72.9,70.0,94,82,65,30.08,30.00,8,2,12,0.11
2013-7-16,81.7,77.6,72.1,74.0,71.6,69.0,93,82,69,30.14,30.04,14,4,17,0.50
2013-7-17,79.6,77.7,73.6,74.0,72.8,70.0,93,85,76,30.14,30.03,7,2,10,0.20
2013-7-18,83.2,76.5,72.6,77.0,73.0,70.0,94,89,77,30.11,30.05,7,1,10,0.50
2013-7-19,84.9,79.9,73.3,78.0,75.5,72.0,95,86,77,30.12,30.04,11,2,14,0.01
2013-7-20,88.5,81.6,75.3,80.0,76.6,73.0,93,85,71,30.10,30.02,8,2,12,0.49
2013-7-21,87.8,80.1,75.0,79.0,75.7,72.0,95,87,74,30.14,30.03,7,1,10,0.00
2013-7-22,89.0,82.5,76.1,77.0,75.5,72.0,91,80,64,30.14,30.06,7,2,11,0.00
2013-7-23,92.2,83.3,76.1,79.0,75.3,73.0,92,77,55,30.09,29.96,7,1,10,0.00
2013-7-24,95.4,85.6,76.9,77.0,73.9,69.0,91,70,49,30.01,29.90,9,1,11,0.00
2013-7-25,95.1,85.1,75.2,77.0,74.7,71.0,91,72,55,30.00,29.90,4,1,9,0.00
2013-7-26,94.6,83.3,77.9,79.0,75.5,74.0,88,78,56,30.01,29.92,7,1,11,0.02
2013-7-27,91.7,79.9,75.4,78.0,75.1,72.0,92,85,63,29.99,29.92,6,0,12,0.40
2013-7-28,87.4,78.7,74.1,79.0,74.9,71.0,93,88,76,30.06,29.94,4,1,12,0.25
2013-7-29,87.0,80.6,75.2,79.0,75.7,73.0,93,85,72,30.12,30.01,10,2,12,0.00
2013-7-30,87.3,82.9,74.5,79.0,76.8,71.0,93,82,73,30.15,30.07,10,2,12,0.22
2013-7-31,87.2,83.5,78.5,78.0,75.8,73.0,89,78,68,30.10,30.00,11,3,13,0.00
2013-8-1,86.9,83.2,80.3,76.0,74.5,73.0,82,75,67,30.04,29.94,10,4,13,0.00
2013-8-2,94.1,81.3,75.5,78.0,74.4,73.0,93,80,52,30.04,29.91,9,1,10,0.15
2013-8-3,85.2,76.8,70.8,78.0,73.7,68.0,95,90,77,30.15,30.01,9,0,21,1.67
2013-8-4,93.5,80.5,74.1,81.0,75.2,72.0,96,85,61,30.09,29.97,9,1,14,0.06
2013-8-5,91.4,80.0,75.5,80.0,75.0,72.0,94,85,64,30.03,29.93,3,0,10,0.35
2013-8-6,90.3,81.8,75.4,79.0,75.5,73.0,94,82,69,29.97,29.89,6,1,11,0.00
2013-8-7,87.8,82.5,76.7,79.0,76.0,74.0,92,81,70,29.98,29.89,12,2,14,0.00
2013-8-8,87.7,84.3,81.7,78.0,75.9,74.0,83,76,66,30.01,29.92,10,4,15,0.02
2013-8-9,87.1,82.4,79.4,78.0,74.7,72.0,89,78,69,30.06,29.95,9,3,14,0.23
2013-8-10,89.0,84.1,80.6,78.0,76.3,75.0,84,77,68,30.11,30.03,10,4,12,0.00
2013-8-11,87.8,84.3,81.4,79.0,76.7,75.0,82,78,71,30.13,30.05,9,3,12,0.00
2013-8-12,87.5,82.6,76.1,78.0,75.0,73.0,91,78,67,30.10,30.00,8,2,12,0.00
2013-8-13,89.0,84.1,79.6,78.0,75.5,73.0,87,76,62,30.03,29.95,11,2,12,0.00
2013-8-14,89.2,82.8,76.2,79.0,75.2,74.0,93,78,65,30.01,29.92,8,2,12,0.00
2013-8-15,86.1,80.9,74.2,78.0,75.6,72.0,94,84,71,30.05,29.95,7,1,10,0.65
2013-8-16,88.8,83.5,78.0,79.0,77.1,74.0,92,81,68,30.04,29.97,9,2,11,0.00
2013-8-17,88.3,84.5,81.5,80.0,77.9,76.0,86,80,73,30.07,29.99,10,3,12,0.04
2013-8-18,87.8,84.3,81.3,79.0,77.1,75.0,83,79,70,30.07,29.98,9,4,14,0.01
2013-8-19,87.7,84.4,81.8,79.0,77.2,76.0,86,79,71,30.06,29.96,10,3,14,0.00
2013-8-20,87.8,83.3,76.8,79.0,76.4,73.0,91,80,71,30.05,29.97,9,3,15,0.12
2013-8-21,87.0,83.0,78.8,80.0,77.4,75.0,92,83,76,30.07,29.99,12,4,16,0.14
2013-8-22,87.5,84.1,79.3,79.0,77.1,74.0,87,79,74,30.05,29.95,10,4,16,0.01
2013-8-23,87.5,83.2,79.6,79.0,76.5,75.0,86,80,73,30.00,29.93,8,2,13,0.00
2013-8-24,88.8,83.1,76.0,80.0,75.8,72.0,92,79,65,30.10,29.97,9,2,12,0.06
2013-8-25,85.0,80.3,75.7,77.0,74.7,72.0,93,83,72,30.14,30.02,8,1,10,0.00
2013-8-26,86.5,79.8,72.8,79.0,74.5,70.0,93,84,69,30.11,30.01,7,1,13,0.38
2013-8-27,85.1,77.9,72.7,78.0,72.8,71.0,95,85,70,30.04,29.96,6,1,9,0.03
2013-8-28,86.4,79.5,73.8,77.0,74.3,72.0,94,84,66,30.02,29.94,8,1,11,0.03
2013-8-29,87.7,81.3,73.7,78.0,74.7,70.0,91,80,69,30.02,29.92,9,2,11,0.00
2013-8-30,90.6,83.3,75.3,79.0,74.7,71.0,93,76,54,30.00,29.89,9,1,11,0.00
2013-8-31,91.1,80.9,73.9,78.0,74.6,71.0,92,81,61,29.97,29.91,8,1,9,0.07
2013-9-1,87.3,79.6,73.5,78.0,74.9,72.0,95,86,69,30.00,29.92,4,0,8,0.01
2013-9-2,91.3,78.1,72.4,80.0,74.1,70.0,95,88,60,30.02,29.93,7,1,12,2.13
2013-9-3,89.2,80.1,71.5,80.0,74.8,70.0,96,84,66,30.01,29.92,7,1,9,0.01
2013-9-4,85.6,81.8,77.5,78.0,76.7,75.0,92,84,78,30.06,29.94,5,1,9,0.00
2013-9-5,88.4,84.0,80.3,79.0,77.1,76.0,88,80,68,30.06,29.98,7,2,13,0.00
2013-9-6,88.5,83.3,78.5,79.0,76.9,75.0,93,81,64,30.03,29.92,7,2,12,0.09
2013-9-7,86.1,78.0,74.0,78.0,74.2,71.0,93,88,74,29.98,29.90,5,0,11,0.18
2013-9-8,87.0,78.7,72.8,79.0,74.3,71.0,95,87,68,29.94,29.85,7,0,10,0.47
2013-9-9,86.7,80.4,72.8,80.0,74.1,71.0,95,82,68,29.99,29.88,8,2,14,0.24
2013-9-10,86.2,82.2,78.0,78.0,75.2,73.0,86,79,72,30.03,29.94,15,3,15,0.01
2013-9-11,82.0,79.5,73.4,78.0,74.8,71.0,93,85,80,30.05,29.96,4,1,11,0.45
2013-9-12,84.1,79.6,75.6,77.0,75.5,73.0,93,87,77,30.00,29.88,4,1,6,0.08
2013-9-13,89.2,81.1,73.6,80.0,74.9,72.0,96,82,62,29.89,29.79,5,1,10,0.11
2013-9-14,89.9,82.6,75.1,80.0,75.0,73.0,94,78,62,29.96,29.81,9,2,10,0.00
2013-9-15,86.3,80.9,75.7,79.0,75.8,72.0,92,84,77,30.04,29.92,8,2,13,0.01
2013-9-16,81.7,80.1,79.0,77.0,75.6,75.0,88,86,84,30.00,29.95,6,2,11,0.57
2013-9-17,80.7,78.7,74.8,76.0,74.7,72.0,93,87,82,30.03,29.91,7,2,11,0.14
2013-9-18,85.2,78.6,74.2,77.0,74.6,72.0,93,87,75,30.00,29.90,5,1,11,0.21
2013-9-19,86.0,79.7,73.1,79.0,74.2,71.0,95,84,73,29.99,29.91,9,2,14,0.01
2013-9-20,85.7,80.6,73.7,74.0,71.3,69.0,87,73,60,29.98,29.89,9,2,14,0.02
2013-9-21,85.3,79.7,71.5,75.0,72.4,69.0,92,78,69,29.91,29.77,8,1,10,0.00
2013-9-22,91.3,82.6,75.7,79.0,75.3,73.0,93,79,61,29.86,29.75,5,1,9,0.00
2013-9-23,88.0,80.6,76.9,79.0,76.4,74.0,93,87,70,29.96,29.84,4,0,8,0.22
2013-9-24,92.8,80.1,74.0,82.0,75.7,72.0,96,87,59,29.96,29.86,6,1,11,0.88
2013-9-25,90.9,80.8,72.5,82.0,74.5,70.0,94,82,57,29.90,29.79,5,1,12,0.02
2013-9-26,93.9,81.0,75.0,80.0,76.5,73.0,93,86,64,29.85,29.78,5,1,14,0.15
2013-9-27,90.0,80.5,73.4,76.0,73.5,71.0,95,80,55,29.91,29.80,5,1,10,0.04
2013-9-28,85.1,78.7,72.9,77.0,72.7,70.0,94,82,68,29.95,29.86,10,2,12,0.15
2013-9-29,84.9,79.7,71.2,74.0,70.7,69.0,92,75,62,29.95,29.87,8,2,12,0.00
2013-9-30,85.8,79.6,71.9,76.0,71.4,69.0,93,77,62,29.99,29.89,8,2,11,0.00
2013-10-1,85.1,80.8,76.5,76.0,71.1,-99.9,86,74,66,30.02,29.94,10,-8,14,0.00
2013-10-2,85.2,81.8,79.5,75.0,73.2,72.0,82,75,67,30.03,29.96,12,4,15,0.00
2013-10-3,84.7,81.3,77.2,76.0,73.4,72.0,85,77,67,30.04,29.94,8,2,12,0.00
2013-10-4,85.2,80.2,74.6,75.0,72.0,70.0,90,76,64,30.05,29.97,8,2,12,0.00
2013-10-5,85.9,79.4,70.6,75.0,71.5,68.0,93,77,62,30.02,29.92,7,1,13,0.00
2013-10-6,86.7,80.3,73.5,77.0,72.8,71.0,93,78,63,29.96,29.86,7,1,12,0.00
2013-10-7,93.4,79.7,73.0,76.0,72.7,70.0,94,80,52,29.89,29.80,6,1,11,0.02
2013-10-8,91.7,81.2,74.6,79.0,74.6,70.0,95,81,60,29.92,29.84,3,0,9,0.02
2013-10-9,84.9,77.6,71.8,76.0,72.6,69.0,92,84,72,29.98,29.89,5,1,10,0.00
2013-10-10,85.1,78.9,70.8,75.0,71.5,69.0,93,79,64,30.00,29.93,9,2,13,0.01
2013-10-11,84.8,77.4,68.8,72.0,68.4,66.0,93,75,59,30.00,29.93,8,1,12,0.01
2013-10-12,85.6,76.9,68.1,72.0,68.5,65.0,93,76,57,30.01,29.94,4,1,10,0.00
2013-10-13,84.7,76.6,70.5,73.0,67.2,64.0,93,74,50,30.04,29.95,10,1,11,0.00
2013-10-14,84.0,76.9,69.1,72.0,68.5,66.0,92,76,60,30.00,29.90,6,1,12,0.00
2013-10-15,84.2,77.3,70.0,73.0,70.2,68.0,93,79,62,29.95,29.86,7,1,10,0.00
2013-10-16,83.5,77.1,70.8,73.0,69.8,67.0,92,79,63,29.94,29.88,7,1,10,0.00
2013-10-17,84.5,77.7,69.9,74.0,70.7,68.0,94,80,65,29.96,29.88,8,1,10,0.00
2013-10-18,85.7,79.1,70.9,75.0,72.0,69.0,93,79,66,29.98,29.89,8,2,9,0.00
2013-10-19,87.5,81.1,73.2,75.0,72.9,70.0,92,77,58,29.95,29.87,8,2,12,0.00
2013-10-20,89.1,80.6,75.3,78.0,75.0,72.0,92,83,64,29.95,29.86,6,1,10,0.00
2013-10-21,88.1,81.5,74.8,78.0,75.3,72.0,93,82,70,29.99,29.90,9,1,11,0.01
2013-10-22,90.3,84.9,78.6,79.0,76.6,74.0,87,76,62,29.95,29.82,5,1,11,0.00
2013-10-23,89.8,80.4,75.1,76.0,73.1,69.0,92,79,62,29.94,29.81,5,0,10,0.00
2013-10-24,80.0,76.3,72.0,69.0,65.4,62.0,80,70,60,30.08,29.93,7,1,12,0.00
2013-10-25,81.2,75.8,68.1,67.0,64.3,63.0,84,68,55,30.14,30.06,9,2,13,0.00
2013-10-26,81.5,74.5,67.3,66.0,63.7,61.0,87,70,55,30.14,30.04,6,1,10,0.00
2013-10-27,80.8,73.4,64.1,67.0,63.4,60.0,86,71,56,30.08,30.01,8,1,13,0.00
2013-10-28,81.9,75.3,65.2,68.0,65.2,63.0,92,72,54,30.13,30.04,8,1,11,0.00
2013-10-29,82.8,76.7,67.0,71.0,67.1,64.0,91,73,60,30.16,30.08,15,3,15,0.00
2013-10-30,81.8,78.5,75.4,69.0,67.5,65.0,75,69,61,30.18,30.07,11,4,16,0.00
2013-10-31,83.0,79.5,77.0,74.0,70.8,66.0,83,75,68,30.10,29.99,10,4,15,0.00
2013-11-1,85.4,80.4,76.5,75.0,72.8,71.0,85,78,69,30.00,29.88,9,2,13,0.00
2013-11-2,89.9,79.3,70.1,74.0,69.9,63.0,94,75,49,29.93,29.79,8,1,10,0.00
2013-11-3,80.7,74.5,68.4,66.0,63.4,61.0,82,69,57,30.02,29.88,11,2,16,0.00
2013-11-4,79.4,76.3,73.2,69.0,64.3,58.0,80,67,53,30.07,30.00,15,4,19,0.02
2013-11-5,81.0,78.5,76.6,71.0,69.0,66.0,78,72,65,30.08,30.01,13,7,20,0.02
2013-11-6,81.6,77.6,70.2,70.0,68.7,67.0,88,74,64,30.05,29.99,11,4,17,0.00
2013-11-7,85.4,75.9,69.0,73.0,69.4,66.0,93,81,61,30.01,29.91,5,1,7,0.00
2013-11-8,83.6,76.4,70.4,73.0,70.2,67.0,93,81,64,30.03,29.93,10,2,16,0.35
2013-11-9,77.7,75.8,72.8,72.0,70.9,70.0,93,84,79,30.10,30.00,11,5,21,0.20
2013-11-10,81.6,78.1,76.2,73.0,70.5,68.0,84,77,71,30.11,30.04,8,3,12,0.21
2013-11-11,81.1,76.7,70.3,72.0,68.6,66.0,90,76,71,30.11,30.04,10,2,13,0.00
2013-11-12,82.4,76.5,69.1,72.0,68.0,66.0,92,76,61,30.07,29.96,6,1,11,0.00
2013-11-13,76.1,71.7,68.6,67.0,63.3,56.0,87,75,63,30.20,29.98,12,3,17,0.03
2013-11-14,75.1,72.1,69.0,62.0,58.4,54.0,69,62,56,30.23,30.13,13,6,21,0.03
2013-11-15,79.6,76.1,73.2,69.0,66.9,62.0,76,73,68,30.14,30.02,11,5,17,0.00
2013-11-16,79.1,77.2,73.3,74.0,70.4,68.0,90,80,71,30.08,30.01,9,3,15,0.07
2013-11-17,82.7,78.4,72.8,74.0,71.1,69.0,89,78,71,30.07,29.99,9,3,16,0.07
2013-11-18,81.9,75.7,71.1,76.0,71.1,69.0,95,86,73,30.01,29.91,4,0,7,0.01
2013-11-19,85.3,73.9,70.7,74.0,70.9,69.0,96,90,66,29.93,29.85,7,0,7,2.55
2013-11-20,82.3,75.4,68.6,74.0,71.6,68.0,96,88,75,30.05,29.91,5,1,8,0.30
2013-11-21,79.3,75.6,71.3,74.0,71.7,69.0,94,87,78,30.13,30.03,9,3,14,0.72
2013-11-22,79.8,77.2,75.3,72.0,70.2,69.0,85,79,73,30.15,30.07,11,5,17,0.00
2013-11-23,80.3,76.3,71.0,72.0,70.0,67.0,88,81,74,30.07,29.97,9,2,12,0.00
2013-11-24,80.9,72.9,66.7,70.0,67.0,64.0,94,82,65,30.14,29.98,9,2,17,0.28
2013-11-25,74.3,72.5,70.9,69.0,64.6,60.0,85,76,67,30.20,30.05,19,7,21,0.00
2013-11-26,81.8,77.0,71.7,75.0,72.4,68.0,91,85,77,30.05,29.82,13,4,19,0.08
2013-11-27,78.4,70.9,57.3,74.0,64.7,51.0,95,82,56,30.11,29.78,5,1,11,0.52
2013-11-28,72.7,62.9,47.9,59.0,52.8,45.0,88,71,54,30.24,30.11,9,2,13,0.00
2013-11-29,75.7,70.0,58.8,62.0,59.4,55.0,89,70,59,30.27,30.19,13,2,16,0.00
2013-11-30,75.8,70.3,61.3,69.0,62.9,59.0,92,78,65,30.21,30.10,11,2,18,0.15
2013-12-1,78.6,69.2,62.5,70.0,65.4,59.0,95,88,73,30.10,29.94,10,1,12,0.24
2013-12-2,74.1,67.2,60.4,68.0,63.8,58.0,96,89,70,29.93,29.82,3,0,5,0.02
2013-12-3,77.4,68.7,59.0,65.0,62.5,57.0,95,82,57,30.00,29.90,3,0,7,0.00
2013-12-4,81.9,71.5,63.4,70.0,65.3,61.0,94,82,63,30.09,29.98,3,0,11,0.00
2013-12-5,81.5,73.8,64.4,72.0,68.0,62.0,94,82,71,30.16,30.07,9,2,14,0.00
2013-12-6,81.4,76.5,70.8,71.0,69.2,66.0,86,78,69,30.18,30.09,7,2,14,0.00
2013-12-7,80.8,73.4,65.9,73.0,68.5,64.0,94,85,70,30.21,30.13,8,1,10,0.02
2013-12-8,81.1,77.2,72.8,71.0,69.3,67.0,88,76,64,30.20,30.12,8,3,15,0.00
2013-12-9,81.8,77.2,72.5,71.0,68.7,66.0,84,75,63,30.19,30.10,11,3,14,0.00
2013-12-10,83.0,76.9,71.2,73.0,70.8,69.0,91,81,69,30.16,30.07,5,1,10,0.00
2013-12-11,81.2,74.2,68.1,74.0,69.6,66.0,95,86,69,30.20,30.11,9,1,10,0.00
2013-12-12,79.0,71.6,67.9,71.0,65.9,60.0,95,83,68,30.22,30.13,6,1,16,0.05
2013-12-13,75.9,72.7,69.5,68.0,63.1,58.0,82,72,66,30.20,30.09,11,4,17,0.00
2013-12-14,80.3,76.6,73.4,73.0,70.6,68.0,88,81,75,30.11,29.99,11,3,15,0.00
2013-12-15,84.3,76.3,70.9,76.0,71.4,67.0,92,85,72,30.05,29.93,7,1,12,0.00
2013-12-16,75.9,67.8,61.4,67.0,61.1,58.0,88,79,64,30.15,30.03,5,1,11,0.00
2013-12-17,76.2,66.0,58.4,65.0,58.8,56.0,92,78,60,30.18,30.10,10,1,12,0.00
2013-12-18,75.7,65.8,59.0,59.0,57.4,56.0,92,76,54,30.24,30.14,10,1,11,0.00
2013-12-19,75.6,68.6,56.8,63.0,59.3,54.0,91,73,59,30.24,30.15,10,3,14,0.00
2013-12-20,79.1,75.9,72.3,70.0,67.0,62.0,79,74,69,30.19,30.10,9,4,15,0.00
2013-12-21,81.3,77.6,75.7,74.0,71.2,69.0,85,81,75,30.14,30.06,14,4,16,0.00
2013-12-22,81.9,78.4,76.6,73.0,72.0,71.0,86,81,72,30.16,30.07,10,4,16,0.00
2013-12-23,83.0,77.4,70.9,74.0,71.6,68.0,91,83,72,30.17,30.11,11,2,14,0.00
2013-12-24,84.1,72.1,66.3,73.0,66.6,61.0,95,83,64,30.17,30.08,6,1,14,0.00
2013-12-25,75.8,72.7,70.3,66.0,65.2,63.0,83,77,70,30.17,30.10,12,4,15,0.00
2013-12-26,77.0,74.7,72.5,70.0,68.6,67.0,84,81,78,30.16,30.06,10,3,12,0.01
2013-12-27,79.3,75.5,72.5,71.0,69.4,68.0,87,81,75,30.19,30.09,9,3,13,0.00
2013-12-28,78.4,75.8,73.2,72.0,70.3,68.0,90,83,78,30.17,30.03,11,5,16,0.06
2013-12-29,81.6,77.4,74.1,74.0,72.6,71.0,92,85,76,30.03,29.92,12,2,20,0.00
2013-12-30,78.6,72.4,68.6,72.0,68.8,65.0,95,88,76,30.14,29.98,3,0,6,0.00
2013-12-31,77.3,72.3,67.4,67.0,64.3,62.0,86,76,64,30.22,30.10,9,2,15,0.00
2014-1-1,79.5,75.6,72.3,73.0,69.9,64.0,88,82,73,30.19,30.04,10,4,14,0.00
2014-1-2,86.3,76.7,67.0,72.0,68.4,65.0,93,77,53,30.03,29.86,7,1,16,0.00